Flag for Russia Weather past 2 weeks in Gelendzhik, Russia

Now
79 °F

Passing clouds.


Feels Like: 80 °F
Forecast: 60 / 75 °F
Wind: 3 mph from Northwest

Location: Anapa / Vitiazevo

Current Time: May 23, 2015 at 4:00:07 PM

Latest Report: May 23, 2015 at 3:30 PM


Visibility: N/A

Pressure: 29.86 "Hg

Humidity: 58%

Dew point: 63 °F

Location of GelendzhikLocation

Historic Weather in Gelendzhik — Graph

°F

Gelendzhik temperature yesterday

Maximum temperature yesterday: 84 °F (at 4:00 PM)
Minimum temperature yesterday: 63 °F (at 12:30 AM)
Average temperature yesterday: 72 °F

Past Weeks' High & Low Weather Summary

 TemperatureHumidityPressure
High84 °F (May 22, 4:00 PM)100% (May 9, 5:00 AM)30.09 "Hg (May 9, 5:00 AM)
Low45 °F (May 11, 1:00 AM)26% (May 20, 1:00 PM)29.83 "Hg (May 22, 4:00 AM)
Average63 °F68%29.97 "Hg
* Reported May 8 2:00 PM — May 23 2:30 PM, Gelendzhik, Weather by CustomWeather, © 2015

Note: Actual official high and low records may vary slightly from our data, if they occured in-between our weather recording intervals... More about our weather records

Advertising

Gelendzhik weather history for previous 24 hours

 ConditionsComfort  
Time TempWeatherWind HumidityBarometerVisibility
2:30 PM
Sat, May 23
77 °FSunny.3 mph61%29.86 "Hg10 mi
2:00 PM75 °FPassing clouds.6 mph61%29.86 "HgN/A
1:30 PM75 °FPassing clouds.6 mph65%29.86 "HgN/A
1:00 PM73 °FPassing clouds.6 mph65%29.89 "HgN/A
12:30 PM77 °FPassing clouds.8 mph57%29.89 "HgN/A
12:00 PM75 °FPassing clouds.8 mph57%29.86 "HgN/A
11:30 AM77 °FPassing clouds.8 mph51%29.86 "HgN/A
11:00 AM79 °FSunny.3 mph54%29.86 "Hg10 mi
10:30 AM77 °FPassing clouds.6 mph54%29.86 "HgN/A
10:00 AM75 °FSunny.1 mph50%29.86 "Hg10 mi
9:30 AM73 °FSunny.1 mph50%29.86 "Hg10 mi
9:00 AM70 °FSunny.1 mph53%29.86 "Hg10 mi
8:30 AM70 °FPassing clouds.3 mph50%29.86 "HgN/A
8:00 AM68 °FPassing clouds.3 mph53%29.86 "HgN/A
7:30 AM64 °FPassing clouds.3 mph60%29.86 "HgN/A
7:00 AM63 °FPassing clouds.3 mph64%29.86 "HgN/A
6:30 AM59 °FSunny.3 mph72%29.86 "Hg10 mi
6:00 AM55 °FSunny.6 mph77%29.86 "Hg10 mi
5:30 AM54 °FClear.6 mph82%29.86 "Hg10 mi
5:00 AM52 °FClear.6 mph82%29.86 "Hg10 mi
4:00 AM52 °FClear.6 mph88%29.89 "Hg10 mi
3:00 AM55 °FClear.3 mph94%29.89 "Hg3 mi
2:00 AM59 °FClear.1 mph100%29.89 "Hg10 mi
12:00 AM61 °FClear.6 mph59%29.89 "Hg10 mi
11:00 PM
Fri, May 22
64 °FClear.10 mph49%29.89 "Hg10 mi
10:30 PM63 °FClear.6 mph59%29.89 "Hg10 mi
10:00 PM64 °FClear.3 mph56%29.89 "Hg10 mi
9:30 PM66 °FClear.6 mph52%29.89 "Hg10 mi
9:00 PM68 °FClear.8 mph49%29.89 "Hg10 mi
8:30 PM70 °FSunny.8 mph46%29.86 "Hg10 mi
8:00 PM72 °FSunny.13 mph44%29.86 "Hg10 mi
7:30 PM73 °FSunny.13 mph41%29.86 "Hg10 mi
7:00 PM77 °FSunny.13 mph39%29.86 "Hg10 mi
6:30 PM79 °FSunny.13 mph37%29.86 "Hg10 mi
6:00 PM81 °FSunny.15 mph32%29.86 "Hg10 mi
5:30 PM82 °FSunny.20 mph30%29.86 "Hg10 mi
5:00 PM82 °FSunny.20 mph32%29.86 "Hg10 mi
4:30 PM84 °FSunny.20 mph29%29.86 "Hg10 mi
4:00 PM84 °FPassing clouds.20 mph29%29.86 "HgN/A
Weather by CustomWeather, © 2015

See weather overviewHow to use our weather pages